QPF
0.00 0.00 0.00 0.00 0.00 0.00 0.00 0.00 0.00 0.00 0.00 0.00 0.00 0.00 0.00 0.01 0.01 0.01 0.01 0.03 0.05 0.05 0.04 0.06 0.08 0.03 0.02 0.02 0.03 0.03 0.04 0.04 0.04 0.04 0.05 0.06 0.07 0.07 0.08 0.07 0.08 0.11 0.14 0.16
0.00 0.00 0.00 0.00 0.00 0.00 0.00 0.00 0.00 0.00 0.00 0.00 0.00 0.00 0.00 0.00 0.00 0.00 0.01 0.01 0.01 0.01 0.02 0.06 0.05 0.01 0.01 0.01 0.02 0.02 0.02 0.03 0.03 0.04 0.04 0.06 0.09 0.08 0.07 0.07 0.08 0.07 0.08 0.10
0.00 0.00 0.00 0.00 0.00 0.00 0.00 0.00 0.00 0.00 0.00 0.00 0.00 0.01 0.00 0.00 0.00 0.00 0.00 0.00 0.00 0.00 0.00 0.00 0.01 0.01 0.01 0.01 0.01 0.01 0.02 0.02 0.02 0.03 0.03 0.04 0.06 0.06 0.07 0.06 0.05 0.04 0.05 0.07
0.00 0.00 0.00 0.00 0.00 0.00 0.00 0.00 0.00 0.00 0.00 0.00 0.01 0.02 0.03 0.04 0.03 0.01 0.01 0.00 0.00 0.00 0.00 0.00 0.00 0.00 0.00 0.01 0.01 0.01 0.02 0.02 0.02 0.02 0.03 0.03 0.04 0.05 0.06 0.07 0.06 0.05 0.05 0.05
0.00 0.00 0.00 0.00 0.00 0.00 0.00 0.00 0.00 0.00 0.01 0.01 0.01 0.01 0.03 0.04 0.07 0.07 0.04 0.01 0.00 0.00 0.00 0.00 0.00 0.00 0.00 0.00 0.01 0.01 0.02 0.02 0.02 0.02 0.03 0.03 0.03 0.05 0.06 0.06 0.06 0.06 0.05 0.04
0.00 0.00 0.00 0.00 0.00 0.00 0.00 0.00 0.00 0.00 0.00 0.01 0.01 0.01 0.04 0.06 0.08 0.15 0.10 0.02 0.00 0.00 0.00 0.00 0.00 0.00 0.00 0.00 0.01 0.01 0.01 0.01 0.02 0.02 0.03 0.04 0.05 0.05 0.05 0.05 0.05 0.06 0.06 0.06
0.00 0.00 0.00 0.00 0.00 0.00 0.00 0.00 0.02 0.04 0.05 0.03 0.01 0.01 0.03 0.03 0.04 0.10 0.10 0.02 0.00 0.00 0.00 0.00 0.00 0.00 0.01 0.01 0.01 0.01 0.01 0.01 0.02 0.03 0.03 0.04 0.05 0.05 0.05 0.06 0.07 0.08 0.08 0.08
0.00 0.00 0.00 0.00 0.00 0.00 0.00 0.00 0.03 0.06 0.08 0.08 0.06 0.04 0.03 0.02 0.01 0.02 0.02 0.00 0.00 0.00 0.00 0.00 0.00 0.00 0.00 0.01 0.01 0.01 0.01 0.02 0.02 0.02 0.03 0.04 0.06 0.07 0.06 0.06 0.06 0.07 0.07 0.06
0.01 0.02 0.01 0.00 0.00 0.00 0.00 0.00 0.01 0.02 0.03 0.05 0.06 0.06 0.07 0.03 0.01 0.01 0.00 0.00 0.00 0.00 0.00 0.00 0.00 0.00 0.01 0.01 0.01 0.01 0.01 0.01 0.01 0.02 0.03 0.04 0.06 0.07 0.06 0.04 0.04 0.05 0.06 0.06
0.02 0.01 0.01 0.00 0.00 0.00 0.00 0.00 0.00 0.01 0.02 0.05 0.06 0.09 0.11 0.08 0.04 0.02 0.01 0.00 0.01 0.03 0.01 0.00 0.00 0.00 0.01 0.00 0.00 0.01 0.01 0.02 0.02 0.03 0.03 0.03 0.05 0.06 0.06 0.04 0.04 0.04 0.04 0.07
0.03 0.01 0.00 0.00 0.00 0.00 0.00 0.00 0.00 0.00 0.01 0.03 0.07 0.11 0.10 0.13 0.13 0.06 0.01 0.00 0.01 0.03 0.01 0.00 0.00 0.00 0.00 0.00 0.00 0.01 0.02 0.02 0.02 0.03 0.03 0.04 0.05 0.05 0.05 0.04 0.03 0.03 0.05 0.07
0.01 0.02 0.02 0.01 0.00 0.00 0.00 0.00 0.00 0.02 0.02 0.01 0.05 0.10 0.05 0.08 0.10 0.05 0.02 0.01 0.00 0.01 0.00 0.00 0.00 0.00 0.00 0.00 0.00 0.00 0.01 0.02 0.02 0.02 0.03 0.05 0.05 0.04 0.03 0.03 0.03 0.03 0.04 0.05
0.01 0.02 0.04 0.06 0.04 0.02 0.01 0.00 0.00 0.00 0.02 0.03 0.06 0.10 0.04 0.06 0.07 0.02 0.01 0.00 0.00 0.00 0.00 0.00 0.00 0.00 0.00 0.00 0.00 0.00 0.01 0.01 0.02 0.03 0.04 0.05 0.05 0.05 0.04 0.04 0.03 0.03 0.04 0.06
0.00 0.01 0.04 0.12 0.10 0.05 0.02 0.01 0.01 0.01 0.03 0.05 0.07 0.09 0.08 0.06 0.06 0.04 0.02 0.01 0.00 0.00 0.00 0.00 0.00 0.00 0.00 0.01 0.01 0.01 0.01 0.01 0.02 0.03 0.05 0.05 0.05 0.05 0.04 0.04 0.05 0.05 0.06 0.07
0.01 0.01 0.00 0.01 0.02 0.02 0.01 0.01 0.00 0.00 0.01 0.03 0.05 0.09 0.14 0.10 0.05 0.03 0.02 0.01 0.01 0.00 0.00 0.00 0.01 0.00 0.00 0.01 0.01 0.01 0.01 0.02 0.03 0.04 0.06 0.05 0.05 0.05 0.04 0.05 0.06 0.05 0.05 0.07
0.01 0.01 0.01 0.01 0.01 0.01 0.01 0.01 0.00 0.00 0.00 0.01 0.03 0.08 0.07 0.05 0.03 0.01 0.01 0.01 0.01 0.01 0.00 0.01 0.01 0.01 0.01 0.01 0.01 0.01 0.02 0.02 0.03 0.05 0.06 0.06 0.07 0.07 0.07 0.07 0.07 0.05 0.05 0.06
0.01 0.02 0.04 0.03 0.01 0.02 0.04 0.02 0.01 0.01 0.01 0.02 0.06 0.08 0.05 0.03 0.01 0.01 0.01 0.01 0.01 0.01 0.01 0.01 0.01 0.01 0.01 0.01 0.02 0.02 0.03 0.04 0.04 0.05 0.06 0.07 0.07 0.09 0.10 0.09 0.07 0.06 0.06 0.05
0.02 0.04 0.05 0.05 0.06 0.08 0.05 0.01 0.01 0.01 0.02 0.02 0.04 0.04 0.03 0.02 0.01 0.01 0.01 0.01 0.01 0.01 0.01 0.02 0.01 0.01 0.01 0.01 0.02 0.02 0.03 0.05 0.06 0.07 0.07 0.07 0.08 0.10 0.11 0.10 0.08 0.07 0.06 0.05
0.01 0.03 0.06 0.08 0.11 0.10 0.06 0.03 0.01 0.03 0.05 0.03 0.04 0.03 0.02 0.01 0.01 0.02 0.01 0.01 0.02 0.01 0.01 0.01 0.01 0.01 0.02 0.03 0.03 0.03 0.03 0.05 0.06 0.06 0.07 0.07 0.08 0.10 0.11 0.11 0.10 0.08 0.08 0.06
0.01 0.03 0.07 0.08 0.12 0.15 0.14 0.05 0.01 0.03 0.11 0.06 0.05 0.04 0.02 0.02 0.04 0.03 0.01 0.01 0.01 0.01 0.01 0.01 0.01 0.02 0.03 0.04 0.03 0.03 0.05 0.06 0.07 0.08 0.08 0.07 0.08 0.09 0.10 0.09 0.10 0.09 0.08 0.05
0.07 0.07 0.07 0.07 0.11 0.14 0.08 0.01 0.02 0.09 0.13 0.04 0.03 0.02 0.02 0.03 0.03 0.01 0.01 0.01 0.01 0.01 0.01 0.01 0.02 0.03 0.04 0.04 0.04 0.05 0.06 0.06 0.06 0.08 0.08 0.09 0.10 0.09 0.09 0.07 0.09 0.10 0.07 0.06
0.07 0.10 0.09 0.09 0.12 0.14 0.05 0.02 0.05 0.07 0.04 0.02 0.02 0.01 0.02 0.02 0.01 0.01 0.01 0.01 0.01 0.01 0.02 0.03 0.03 0.03 0.03 0.04 0.05 0.07 0.06 0.05 0.06 0.07 0.08 0.11 0.12 0.09 0.08 0.08 0.09 0.10 0.07 0.05
0.06 0.08 0.10 0.13 0.14 0.10 0.03 0.02 0.02 0.02 0.01 0.01 0.01 0.01 0.01 0.02 0.02 0.01 0.02 0.01 0.01 0.02 0.03 0.03 0.03 0.03 0.03 0.05 0.06 0.07 0.08 0.07 0.07 0.07 0.09 0.10 0.11 0.09 0.08 0.09 0.10 0.10 0.07 0.05
0.06 0.04 0.08 0.13 0.11 0.04 0.01 0.00 0.00 0.00 0.01 0.01 0.01 0.01 0.01 0.02 0.01 0.02 0.02 0.03 0.04 0.03 0.03 0.04 0.04 0.04 0.05 0.06 0.08 0.09 0.08 0.08 0.08 0.07 0.08 0.08 0.08 0.08 0.08 0.08 0.08 0.08 0.06 0.05
0.05 0.06 0.12 0.14 0.09 0.03 0.02 0.01 0.00 0.00 0.01 0.01 0.01 0.01 0.01 0.02 0.02 0.02 0.02 0.04 0.05 0.04 0.04 0.04 0.05 0.05 0.06 0.06 0.06 0.07 0.07 0.07 0.06 0.07 0.07 0.06 0.06 0.07 0.07 0.05 0.05 0.05 0.04 0.03
0.04 0.06 0.09 0.10 0.06 0.03 0.03 0.01 0.01 0.01 0.01 0.00 0.00 0.01 0.01 0.01 0.02 0.02 0.02 0.03 0.03 0.03 0.03 0.04 0.04 0.05 0.05 0.05 0.05 0.06 0.06 0.05 0.06 0.07 0.07 0.05 0.05 0.05 0.04 0.02 0.02 0.02 0.02 0.01
MSLP
1008.24 1008.45 1008.47 1008.31 1008.06 1007.79 1007.58 1007.48 1007.50 1007.60 1007.69 1007.72 1007.62 1007.36 1006.99 1006.57 1006.21 1006.04 1006.14 1006.55 1007.26 1008.19 1009.22 1010.20 1010.99 1011.50 1011.69 1011.59 1011.26 1010.83 1010.41 1010.11 1010.00 1010.08 1010.33 1010.69 1011.08 1011.43 1011.70 1011.87 1011.98 1012.06 1012.17 1012.36
1008.47 1008.56 1008.43 1008.16 1007.83 1007.51 1007.31 1007.26 1007.36 1007.56 1007.77 1007.91 1007.91 1007.73 1007.40 1006.99 1006.62 1006.41 1006.44 1006.77 1007.39 1008.24 1009.18 1010.09 1010.82 1011.31 1011.50 1011.43 1011.16 1010.81 1010.49 1010.29 1010.27 1010.43 1010.73 1011.10 1011.48 1011.80 1012.01 1012.11 1012.15 1012.16 1012.21 1012.35
1008.60 1008.56 1008.32 1007.97 1007.59 1007.28 1007.13 1007.17 1007.39 1007.71 1008.05 1008.30 1008.39 1008.26 1007.96 1007.54 1007.12 1006.83 1006.76 1006.97 1007.47 1008.20 1009.04 1009.87 1010.56 1011.04 1011.25 1011.23 1011.05 1010.79 1010.57 1010.47 1010.52 1010.74 1011.07 1011.45 1011.81 1012.10 1012.27 1012.34 1012.33 1012.31 1012.33 1012.43
1008.65 1008.50 1008.19 1007.79 1007.42 1007.18 1007.12 1007.30 1007.66 1008.13 1008.60 1008.96 1009.11 1009.02 1008.70 1008.23 1007.72 1007.31 1007.12 1007.20 1007.56 1008.17 1008.92 1009.68 1010.35 1010.84 1011.10 1011.15 1011.04 1010.87 1010.73 1010.69 1010.78 1011.01 1011.34 1011.71 1012.05 1012.31 1012.47 1012.52 1012.52 1012.50 1012.52 1012.62
1008.63 1008.41 1008.07 1007.70 1007.39 1007.26 1007.35 1007.68 1008.21 1008.83 1009.42 1009.85 1010.05 1009.95 1009.58 1009.03 1008.41 1007.87 1007.53 1007.47 1007.71 1008.21 1008.89 1009.62 1010.29 1010.81 1011.13 1011.25 1011.22 1011.11 1011.01 1010.98 1011.07 1011.27 1011.56 1011.88 1012.19 1012.44 1012.60 1012.69 1012.72 1012.74 1012.79 1012.90
1008.59 1008.35 1008.03 1007.71 1007.52 1007.53 1007.78 1008.28 1008.97 1009.72 1010.40 1010.89 1011.09 1010.96 1010.52 1009.87 1009.13 1008.45 1007.98 1007.79 1007.93 1008.36 1008.99 1009.72 1010.42 1010.99 1011.38 1011.56 1011.59 1011.51 1011.41 1011.35 1011.39 1011.52 1011.74 1012.01 1012.28 1012.52 1012.71 1012.85 1012.95 1013.03 1013.14 1013.27
1008.58 1008.35 1008.07 1007.85 1007.78 1007.93 1008.34 1008.99 1009.80 1010.65 1011.39 1011.90 1012.08 1011.90 1011.38 1010.63 1009.78 1008.99 1008.41 1008.13 1008.20 1008.58 1009.21 1009.96 1010.71 1011.35 1011.80 1012.05 1012.11 1012.05 1011.92 1011.80 1011.75 1011.79 1011.92 1012.12 1012.36 1012.60 1012.83 1013.03 1013.21 1013.38 1013.55 1013.71
1008.64 1008.44 1008.23 1008.09 1008.13 1008.39 1008.91 1009.66 1010.54 1011.43 1012.19 1012.69 1012.84 1012.60 1012.02 1011.19 1010.26 1009.41 1008.76 1008.44 1008.47 1008.85 1009.50 1010.29 1011.10 1011.80 1012.33 1012.63 1012.72 1012.65 1012.48 1012.30 1012.16 1012.10 1012.14 1012.27 1012.48 1012.73 1013.00 1013.27 1013.53 1013.78 1014.00 1014.18
1008.82 1008.65 1008.48 1008.41 1008.50 1008.83 1009.39 1010.15 1011.04 1011.91 1012.64 1013.10 1013.21 1012.93 1012.32 1011.46 1010.52 1009.65 1009.00 1008.67 1008.72 1009.12 1009.80 1010.65 1011.51 1012.28 1012.87 1013.22 1013.34 1013.27 1013.07 1012.82 1012.61 1012.47 1012.43 1012.51 1012.70 1012.96 1013.26 1013.59 1013.91 1014.21 1014.46 1014.65
1009.12 1008.97 1008.83 1008.77 1008.86 1009.16 1009.67 1010.38 1011.19 1011.99 1012.64 1013.04 1013.11 1012.83 1012.23 1011.42 1010.52 1009.71 1009.12 1008.84 1008.94 1009.38 1010.10 1010.98 1011.90 1012.72 1013.35 1013.75 1013.90 1013.84 1013.63 1013.36 1013.10 1012.91 1012.83 1012.88 1013.05 1013.31 1013.64 1013.99 1014.35 1014.66 1014.92 1015.09
1009.56 1009.41 1009.26 1009.15 1009.17 1009.37 1009.75 1010.32 1010.98 1011.64 1012.19 1012.53 1012.59 1012.34 1011.82 1011.11 1010.34 1009.65 1009.17 1008.99 1009.15 1009.64 1010.40 1011.31 1012.24 1013.10 1013.76 1014.20 1014.39 1014.36 1014.18 1013.91 1013.65 1013.45 1013.36 1013.39 1013.55 1013.80 1014.13 1014.49 1014.83 1015.13 1015.36 1015.49
1010.08 1009.93 1009.73 1009.54 1009.44 1009.48 1009.68 1010.03 1010.50 1010.99 1011.42 1011.70 1011.77 1011.59 1011.20 1010.67 1010.09 1009.58 1009.26 1009.20 1009.44 1009.98 1010.74 1011.65 1012.58 1013.43 1014.11 1014.57 1014.80 1014.83 1014.69 1014.47 1014.25 1014.07 1013.99 1014.03 1014.17 1014.42 1014.72 1015.05 1015.35 1015.61 1015.78 1015.86
1010.63 1010.47 1010.22 1009.93 1009.69 1009.54 1009.52 1009.65 1009.90 1010.21 1010.52 1010.75 1010.85 1010.79 1010.58 1010.26 1009.91 1009.62 1009.48 1009.56 1009.88 1010.44 1011.19 1012.06 1012.95 1013.76 1014.43 1014.90 1015.17 1015.25 1015.19 1015.04 1014.87 1014.75 1014.70 1014.75 1014.89 1015.11 1015.37 1015.64 1015.89 1016.07 1016.18 1016.20
1011.14 1010.97 1010.68 1010.32 1009.94 1009.61 1009.39 1009.30 1009.34 1009.49 1009.69 1009.90 1010.05 1010.12 1010.11 1010.03 1009.93 1009.87 1009.92 1010.13 1010.51 1011.08 1011.79 1012.58 1013.39 1014.13 1014.76 1015.22 1015.51 1015.65 1015.66 1015.59 1015.51 1015.45 1015.44 1015.50 1015.63 1015.82 1016.03 1016.24 1016.41 1016.53 1016.58 1016.55
1011.53 1011.38 1011.08 1010.67 1010.21 1009.75 1009.36 1009.09 1008.96 1008.97 1009.10 1009.29 1009.52 1009.74 1009.93 1010.08 1010.23 1010.39 1010.61 1010.93 1011.36 1011.90 1012.53 1013.23 1013.92 1014.56 1015.12 1015.55 1015.85 1016.03 1016.11 1016.12 1016.11 1016.11 1016.15 1016.23 1016.35 1016.50 1016.67 1016.81 1016.92 1016.98 1016.98 1016.92
1011.75 1011.65 1011.39 1010.99 1010.49 1009.97 1009.48 1009.09 1008.84 1008.76 1008.84 1009.05 1009.35 1009.71 1010.09 1010.46 1010.81 1011.17 1011.53 1011.93 1012.37 1012.87 1013.41 1013.97 1014.53 1015.06 1015.52 1015.90 1016.19 1016.39 1016.51 1016.59 1016.65 1016.71 1016.78 1016.87 1016.99 1017.12 1017.25 1017.35 1017.42 1017.44 1017.41 1017.35
1011.80 1011.79 1011.61 1011.26 1010.80 1010.27 1009.75 1009.31 1009.01 1008.89 1008.95 1009.18 1009.55 1010.02 1010.55 1011.10 1011.62 1012.13 1012.60 1013.04 1013.48 1013.91 1014.34 1014.77 1015.19 1015.59 1015.95 1016.26 1016.52 1016.72 1016.88 1017.01 1017.11 1017.22 1017.32 1017.43 1017.55 1017.67 1017.78 1017.86 1017.91 1017.93 1017.90 1017.85
1011.73 1011.81 1011.73 1011.49 1011.11 1010.64 1010.15 1009.72 1009.42 1009.29 1009.35 1009.61 1010.04 1010.60 1011.24 1011.91 1012.56 1013.16 1013.70 1014.17 1014.58 1014.94 1015.26 1015.57 1015.85 1016.13 1016.39 1016.63 1016.85 1017.04 1017.22 1017.37 1017.52 1017.65 1017.79 1017.92 1018.05 1018.18 1018.29 1018.38 1018.44 1018.48 1018.48 1018.47
1011.61 1011.78 1011.81 1011.68 1011.42 1011.05 1010.64 1010.26 1009.99 1009.88 1009.97 1010.25 1010.72 1011.33 1012.03 1012.77 1013.49 1014.15 1014.72 1015.19 1015.57 1015.87 1016.11 1016.30 1016.48 1016.65 1016.83 1017.00 1017.19 1017.37 1017.55 1017.73 1017.90 1018.07 1018.23 1018.39 1018.55 1018.69 1018.83 1018.95 1019.05 1019.12 1019.17 1019.20
1011.53 1011.77 1011.90 1011.88 1011.73 1011.47 1011.16 1010.86 1010.64 1010.57 1010.68 1010.98 1011.46 1012.09 1012.82 1013.59 1014.33 1015.01 1015.59 1016.06 1016.41 1016.67 1016.84 1016.96 1017.07 1017.17 1017.28 1017.41 1017.57 1017.74 1017.93 1018.12 1018.32 1018.51 1018.71 1018.90 1019.09 1019.27 1019.45 1019.61 1019.76 1019.88 1019.98 1020.06
1011.58 1011.85 1012.04 1012.11 1012.06 1011.91 1011.69 1011.47 1011.31 1011.28 1011.41 1011.71 1012.19 1012.82 1013.54 1014.30 1015.05 1015.72 1016.30 1016.76 1017.10 1017.32 1017.47 1017.55 1017.62 1017.68 1017.77 1017.88 1018.02 1018.19 1018.39 1018.60 1018.82 1019.04 1019.27 1019.50 1019.72 1019.95 1020.17 1020.38 1020.58 1020.75 1020.89 1021.01
1011.78 1012.06 1012.28 1012.40 1012.42 1012.35 1012.21 1012.07 1011.97 1011.97 1012.11 1012.42 1012.88 1013.48 1014.17 1014.91 1015.63 1016.29 1016.86 1017.31 1017.65 1017.87 1018.01 1018.10 1018.16 1018.22 1018.30 1018.42 1018.56 1018.75 1018.96 1019.19 1019.43 1019.68 1019.94 1020.20 1020.46 1020.73 1020.99 1021.24 1021.48 1021.69 1021.87 1022.00
1012.12 1012.37 1012.59 1012.75 1012.81 1012.80 1012.73 1012.64 1012.60 1012.63 1012.79 1013.09 1013.53 1014.09 1014.74 1015.44 1016.12 1016.76 1017.31 1017.76 1018.11 1018.35 1018.51 1018.62 1018.70 1018.79 1018.89 1019.02 1019.19 1019.39 1019.62 1019.87 1020.13 1020.40 1020.69 1020.97 1021.27 1021.56 1021.86 1022.14 1022.40 1022.64 1022.83 1022.98
1012.53 1012.75 1012.95 1013.11 1013.20 1013.23 1013.22 1013.19 1013.19 1013.26 1013.43 1013.72 1014.14 1014.66 1015.27 1015.91 1016.56 1017.17 1017.71 1018.16 1018.51 1018.78 1018.97 1019.12 1019.24 1019.36 1019.50 1019.66 1019.85 1020.07 1020.32 1020.59 1020.86 1021.15 1021.45 1021.76 1022.07 1022.38 1022.69 1022.99 1023.27 1023.51 1023.71 1023.86
1012.92 1013.10 1013.28 1013.44 1013.56 1013.63 1013.66 1013.69 1013.74 1013.84 1014.03 1014.32 1014.71 1015.20 1015.76 1016.36 1016.97 1017.54 1018.06 1018.51 1018.87 1019.16 1019.39 1019.58 1019.75 1019.91 1020.08 1020.28 1020.49 1020.73 1020.99 1021.26 1021.55 1021.84 1022.15 1022.46 1022.77 1023.09 1023.40 1023.70 1023.98 1024.22 1024.42 1024.56
1013.19 1013.34 1013.52 1013.68 1013.82 1013.93 1014.01 1014.10 1014.19 1014.34 1014.55 1014.85 1015.23 1015.70 1016.22 1016.77 1017.33 1017.87 1018.36 1018.80 1019.17 1019.48 1019.74 1019.96 1020.17 1020.36 1020.57 1020.79 1021.02 1021.27 1021.54 1021.81 1022.09 1022.38 1022.68 1022.98 1023.29 1023.59 1023.90 1024.19 1024.46 1024.69 1024.88 1025.02
Thickness
5722 5715 5716 5730 5741 5745 5749 5753 5755 5761 5770 5762 5756 5750 5752 5755 5756 5751 5744 5739 5734 5728 5727 5727 5724 5724 5724 5723 5722 5720 5720 5720 5720 5719 5718 5717 5717 5717 5717 5717 5716 5714 5714 5714
5716 5714 5732 5745 5750 5744 5744 5745 5750 5758 5767 5759 5753 5750 5752 5755 5752 5749 5741 5734 5729 5725 5723 5720 5717 5717 5716 5714 5714 5713 5712 5712 5711 5710 5711 5711 5711 5710 5710 5710 5710 5709 5707 5707
5712 5727 5742 5739 5736 5733 5737 5741 5746 5747 5754 5754 5747 5740 5744 5748 5748 5743 5741 5735 5728 5722 5718 5714 5713 5711 5709 5706 5705 5705 5703 5703 5702 5702 5703 5704 5703 5703 5703 5702 5702 5702 5701 5701
5718 5733 5735 5730 5731 5733 5728 5748 5749 5746 5737 5732 5737 5718 5731 5735 5730 5727 5729 5727 5722 5719 5715 5711 5707 5703 5702 5700 5699 5697 5695 5694 5693 5694 5693 5693 5692 5691 5692 5694 5694 5694 5694 5694
5719 5730 5728 5724 5733 5736 5734 5748 5746 5744 5734 5726 5731 5718 5721 5728 5717 5715 5717 5719 5717 5713 5708 5703 5700 5697 5694 5692 5690 5688 5686 5685 5685 5684 5684 5683 5683 5684 5685 5686 5686 5686 5686 5686
5727 5741 5738 5735 5744 5744 5742 5742 5739 5735 5725 5706 5718 5711 5706 5716 5712 5711 5711 5713 5711 5707 5702 5697 5694 5691 5687 5684 5682 5680 5678 5677 5676 5676 5675 5674 5674 5674 5674 5676 5676 5677 5677 5678
5718 5731 5741 5745 5734 5738 5735 5720 5702 5690 5688 5694 5714 5712 5713 5723 5725 5718 5710 5707 5704 5701 5696 5690 5686 5682 5677 5674 5672 5671 5669 5667 5667 5667 5666 5666 5665 5665 5665 5666 5666 5667 5667 5667
5698 5706 5729 5738 5732 5724 5726 5722 5696 5675 5670 5684 5696 5699 5711 5729 5727 5721 5713 5706 5699 5694 5689 5683 5678 5673 5668 5665 5662 5660 5659 5658 5657 5657 5657 5657 5657 5656 5656 5656 5656 5657 5657 5657
5690 5696 5728 5738 5743 5737 5724 5722 5725 5701 5695 5679 5681 5692 5699 5713 5712 5710 5705 5697 5691 5685 5680 5675 5670 5665 5660 5655 5653 5650 5649 5648 5647 5647 5646 5646 5646 5646 5646 5646 5646 5646 5646 5647
5702 5696 5719 5734 5741 5741 5737 5733 5720 5702 5683 5672 5673 5679 5680 5689 5694 5697 5694 5687 5682 5676 5670 5665 5660 5655 5651 5647 5644 5642 5640 5638 5637 5636 5635 5635 5634 5634 5634 5635 5634 5634 5635 5636
5707 5696 5707 5721 5720 5720 5725 5722 5718 5715 5710 5685 5668 5669 5689 5687 5688 5689 5689 5685 5677 5669 5663 5656 5650 5646 5642 5639 5635 5632 5630 5628 5627 5625 5624 5623 5623 5623 5623 5623 5623 5623 5624 5625
5709 5698 5690 5704 5727 5733 5728 5722 5717 5699 5697 5700 5679 5666 5694 5690 5691 5690 5683 5676 5669 5661 5654 5647 5641 5637 5632 5628 5624 5621 5618 5617 5615 5614 5612 5611 5611 5611 5611 5610 5610 5612 5613 5614
5702 5691 5674 5679 5695 5708 5713 5721 5720 5713 5703 5693 5676 5668 5691 5690 5687 5684 5675 5666 5658 5651 5645 5638 5631 5625 5620 5616 5612 5609 5607 5605 5603 5602 5600 5599 5598 5598 5598 5598 5599 5600 5601 5602
5700 5691 5678 5662 5670 5685 5694 5708 5714 5708 5695 5689 5685 5678 5680 5680 5677 5670 5663 5656 5649 5641 5634 5627 5619 5613 5608 5604 5600 5597 5594 5592 5591 5589 5588 5587 5586 5586 5586 5587 5588 5588 5590 5591
5695 5686 5690 5691 5694 5696 5697 5704 5708 5705 5705 5695 5689 5682 5676 5676 5671 5662 5655 5647 5638 5630 5623 5615 5608 5601 5597 5592 5589 5585 5582 5580 5578 5578 5576 5575 5575 5575 5575 5576 5577 5578 5579 5580
5689 5682 5685 5687 5696 5696 5696 5703 5707 5706 5705 5702 5696 5678 5680 5676 5667 5656 5647 5637 5627 5619 5612 5604 5597 5591 5585 5581 5577 5573 5571 5569 5567 5566 5565 5564 5564 5564 5564 5565 5566 5568 5568 5569
5679 5677 5672 5674 5689 5689 5681 5694 5700 5701 5702 5695 5683 5674 5675 5665 5656 5647 5637 5628 5619 5610 5602 5593 5587 5580 5574 5570 5566 5563 5560 5558 5556 5555 5554 5553 5553 5554 5554 5555 5556 5557 5558 5559
5669 5669 5670 5670 5673 5660 5681 5702 5703 5697 5691 5691 5681 5674 5666 5656 5648 5639 5630 5620 5610 5600 5591 5583 5576 5569 5564 5560 5556 5553 5550 5548 5546 5545 5544 5543 5544 5544 5544 5546 5546 5548 5549 5550
5675 5667 5663 5663 5659 5665 5678 5688 5689 5683 5673 5679 5671 5664 5655 5647 5634 5624 5619 5610 5600 5589 5580 5572 5566 5560 5555 5551 5547 5544 5541 5539 5538 5536 5535 5535 5535 5536 5537 5538 5539 5540 5541 5543
5678 5673 5661 5661 5650 5643 5656 5678 5692 5685 5658 5666 5662 5654 5648 5640 5626 5612 5607 5598 5588 5578 5570 5563 5557 5551 5546 5542 5540 5537 5533 5531 5530 5528 5528 5528 5528 5529 5530 5531 5532 5533 5535 5536
5660 5660 5657 5656 5652 5653 5665 5681 5688 5659 5647 5661 5659 5650 5643 5634 5623 5608 5598 5587 5577 5569 5562 5555 5549 5543 5539 5536 5533 5530 5527 5525 5523 5522 5522 5521 5522 5524 5525 5526 5527 5528 5529 5530
5654 5651 5652 5654 5647 5643 5664 5672 5661 5655 5662 5659 5652 5644 5633 5621 5610 5599 5588 5577 5568 5561 5554 5548 5542 5537 5533 5530 5528 5525 5522 5520 5518 5517 5517 5516 5517 5519 5520 5521 5522 5524 5525 5526
5656 5655 5653 5650 5645 5655 5663 5663 5664 5665 5658 5652 5645 5635 5624 5612 5600 5589 5578 5569 5561 5554 5548 5543 5538 5533 5529 5526 5523 5520 5517 5516 5514 5514 5513 5513 5513 5514 5515 5517 5518 5520 5522 5524
5658 5665 5658 5650 5651 5657 5660 5662 5661 5658 5651 5646 5638 5627 5617 5605 5593 5582 5572 5563 5555 5549 5543 5539 5534 5529 5525 5523 5520 5517 5515 5514 5512 5511 5510 5510 5511 5511 5512 5514 5516 5517 5518 5520
5653 5658 5653 5647 5649 5652 5653 5654 5652 5649 5644 5637 5629 5620 5610 5599 5587 5577 5568 5559 5552 5545 5540 5536 5531 5527 5523 5521 5518 5516 5514 5513 5511 5509 5509 5509 5509 5510 5509 5509 5508 5510 5510 5513
5654 5651 5647 5643 5649 5648 5645 5648 5647 5641 5634 5628 5620 5610 5602 5593 5583 5574 5565 5556 5550 5543 5538 5533 5530 5526 5523 5520 5517 5515 5513 5512 5510 5509 5509 5510 5511 5511 5511 5510 5507 5505 5508 5510